Content
SEND FEEDBACK

Daily
Averages
Monthly
Summary
Mexico

CANCUN, QUINTANA ROO


Home > North America > Mexico > Quintana Roo
Elevation: 9 meters     Latitude: 21 09N     Longitude: 086 49W

WEATHER
 
SELECT A DAY
Number of Records: 163,723;   Date Range: 1/1/95 - 7/28/14
 
SHARE

PRINT THIS DATA

[ ← Previous Day ]
WEATHER ALMANAC - 29 JUNE, 2013
[ Next Day → ]
[ °F ]   °C
We're sorry. There is no daily almanac available for Cancun, Quintana Roo on 29 June, 2013.
WEATHER BY HOUR - 29 JUNE, 2013
[ °F ]   °C
Local TimeTemperatureDewpointHumidityBarometerVisibilityWind DirectionWind SpeedGust SpeedPrecipitationEventsConditions
1:46 AM25 °C23 °C89 %1012.2 hPa11.3 kmCalmMostly Cloudy
2:43 AM24 °C23 °C94 %1011.9 hPa11.3 kmCalmMostly Cloudy
3:46 AM24 °C23 °C94 %1010.8 hPa9.7 kmCalmMostly Cloudy
4:45 AM24 °C23 °C94 %1011.9 hPa9.7 kmNW (310°)9.3 km/hMostly Cloudy
5:44 AM23 °C23 °C100 %1012.2 hPa9.7 kmWNW (300°)9.3 km/hMostly Cloudy
6:43 AM23 °C22 °C94 %1011.9 hPa11.3 kmWNW (300°)7.4 km/hScattered Clouds
7:44 AM24 °C23 °C94 %1012.9 hPa11.3 kmNW (310°)5.6 km/hScattered Clouds
8:43 AM28 °C24 °C79 %1012.9 hPa11.3 kmCalmMostly Cloudy
9:41 AM30 °C23 °C66 %1012.9 hPa11.3 kmSouth (180°)5.6 km/hMostly Cloudy
10:40 AM30 °C23 °C66 %1012.5 hPa11.3 kmSSW (200°)7.4 km/hMostly Cloudy
11:40 AM31 °C24 °C66 %1012.2 hPa11.3 kmSSE (160°)9.3 km/hMostly Cloudy
12:43 PM30 °C24 °C70 %1011.9 hPa11.3 kmSE (130°)13 km/hMostly Cloudy
1:46 PM31 °C24 °C66 %1011.2 hPa11.3 kmSE (130°)18.5 km/hMostly Cloudy
2:43 PM30 °C24 °C70 %1010.8 hPa11.3 kmESE (120°)16.7 km/hMostly Cloudy
3:48 PM29 °C24 °C74 %1011.2 hPa11.3 kmWSW (250°)3.7 km/hMostly Cloudy
4:41 PM26 °C24 °C89 %1010.5 hPa9.7 kmWNW (300°)7.4 km/hMostly Cloudy
5:44 PM28 °C25 °C84 %1010.5 hPa9.7 kmCalmMostly Cloudy
6:49 PM27 °C25 °C89 %1010.8 hPa9.7 kmEast (80°)3.7 km/hMostly Cloudy
7:43 PM27 °C25 °C89 %1011.5 hPa9.7 kmNE (40°)3.7 km/hMostly Cloudy
8:17 PM27 °C25 °C89 %1012.2 hPa8 kmSE (130°)9.3 km/hRainRain
8:42 PM26 °C25 °C94 %1010.5 hPa8 kmCalmRainLight Rain
9:44 PM26 °C25 °C94 %1012.9 hPa9.7 kmSSW (200°)5.6 km/hMostly Cloudy
10:43 PM24 °C23 °C94 %1012.5 hPa9.7 kmWNW (300°)3.7 km/hOvercast
11:40 PM24 °C23 °C94 %1012.5 hPa9.7 kmCalmOvercast
Hourly data recorded from MMUN, located 0 kilometers away from Cancun, Quintana Roo







STORIES FROM OUR PARTNERS